Location: Newark
(42.8481°N, 0.4872°E)
Time: 13:13:58
(UTC+00:00)

A-11 Canister half - Pass Details

Date: 29 October 2020
Orbit: 1525 x 1684 km, 47.3° (Epoch: 01 December)

Event Time Altitude Azimuth Distance (km) Brightness Sun altitude
Rises 15:55:16 0° 262° (W) 4,771 13.1 9.1°
Reaches altitude 10° 15:58:25 10° 264° (W) 3,767 12.6 8.5°
Maximum altitude 16:07:55 72° 349° (N) 1,609 9.3 7.0°
Drops below altitude 10° 16:17:14 10° 74° (ENE) 3,695 10.4 5.4°
Sets 16:20:17 0° 76° (ENE) 4,676 10.9 4.9°
